FW2795 Weather Reports


Display with metric or nautical units.
time (UTC)temp
F
wind
direction
speed
MPH
gust
MPH
rain 1hr
in
rain 24hr
in
rain mn
in
humidity
%
barometer
mb
20260507113602 69 310 1.0 2.0 0.00 0.00 0.00 28 1016.2
20260507112602 69 319 2.0 4.0 0.00 0.00 0.00 28 1015.9
20260507111601 70 324 3.0 5.0 0.00 0.00 0.00 29 1016.0
20260507111101 68 326 1.0 2.0 0.00 0.00 0.00 31 1015.9
20260507110600 66 310 1.0 2.0 0.00 0.00 0.00 32 1016.3
20260507105605 65 307 2.0 3.0 0.00 0.00 0.00 33 1016.2
20260507105049 65 283 1.0 2.0 0.00 0.00 0.00 34 1016.5
20260507104549 65 287 2.0 4.0 0.00 0.00 0.00 33 1016.2
20260507104003 65 344 1.0 2.0 0.00 0.00 0.00 36 1016.4
20260507102948 64 338 1.0 2.0 0.00 0.00 0.00 38 1016.5
20260507102003 64 32 2.0 4.0 0.00 0.00 0.00 45 1016.6
20260507101447 64 97 2.0 3.0 0.00 0.00 0.00 46 1016.5
20260507101002 65 132 2.0 3.0 0.00 0.00 0.00 46 1016.5
20260507095951 62 167 2.0 4.0 0.00 0.00 0.00 50 1016.6
20260507094951 61 201 1.0 2.0 0.00 0.00 0.00 53 1016.5
20260507093951 63 222 1.0 2.0 0.00 0.00 0.00 53 1016.6
20260507093506 62 213 2.0 4.0 0.00 0.00 0.00 53 1016.8
20260507092955 62 203 2.0 4.0 0.00 0.00 0.00 58 1016.2
20260507091955 60 184 2.0 2.0 0.00 0.00 0.00 61 1016.5
20260507090954 58 186 1.0 3.0 0.00 0.00 0.00 64 1016.7
20260507085954 60 157 2.0 4.0 0.00 0.00 0.00 61 1016.7
20260507085454 60 85 1.0 2.0 0.00 0.00 0.00 61 1016.7
20260507084953 60 107 1.0 2.0 0.00 0.00 0.00 63 1016.7
20260507083952 60 98 0.0 1.0 0.00 0.00 0.00 61 1016.6
20260507082952 60 143 0.0 2.0 0.00 0.00 0.00 63 1016.8
20260507081952 60 190 2.0 2.0 0.00 0.00 0.00 64 1016.7
20260507081506 61 90 2.0 3.0 0.00 0.00 0.00 67 1016.7
20260507080956 60 270 0.0 2.0 0.00 0.00 0.00 72 1016.7
20260507075955 58 225 0.0 1.0 0.00 0.00 0.00 86 1016.7
20260507075509 56 225 0.0 1.0 0.00 0.00 0.00 91 1016.7
20260507074958 53 225 0.0 2.0 0.00 0.00 0.00 91 1016.5
20260507073958 50 225 0.0 1.0 0.00 0.00 0.00 93 1016.6
20260507073457 49 225 1.0 2.0 0.00 0.00 0.00 95 1016.6
20260507072957 49 225 0.0 1.0 0.00 0.00 0.00 95 1016.7
20260507072457 49 225 0.0 1.0 0.00 0.00 0.00 96 1016.6
20260507071856 48 225 1.0 2.0 0.00 0.00 0.00 97 1016.5
20260507071401 48 225 1.0 2.0 0.00 0.00 0.00 98 1016.6
20260507070400 47 360 0.0 1.0 0.00 0.00 0.00 98 1016.5
20260507065400 46 304 0.0 1.0 0.00 0.00 0.00 98 1016.5
20260507064400 46 304 1.0 2.0 0.00 0.00 0.00 97 1016.6
20260507063859 44 270 0.0 2.0 0.00 0.00 0.00 98 1016.6
20260507063359 43 270 2.0 2.0 0.00 0.00 0.00 98 1016.6
20260507062358 43 180 0.0 0.0 0.00 0.00 0.00 98 1016.4
20260507061858 43 180 0.0 2.0 0.00 0.00 0.00 98 1016.4
20260507061358 42 180 0.0 2.0 0.00 0.00 0.00 99 1016.2
20260507060357 41 315 0.0 1.0 0.00 0.00 0.00 99 1016.6
20260507055857 41 315 0.0 2.0 0.00 0.00 0.00 99 1016.4
20260507055356 41 298 0.0 1.0 0.00 0.00 0.00 99 1016.5
20260507054356 40 298 0.0 2.0 0.00 0.00 0.00 99 1016.3
20260507053855 41 298 1.0 3.0 0.00 0.00 0.00 99 1016.2
20260507053355 41 283 0.0 2.0 0.00 0.00 0.00 99 1016.2
20260507052354 40 276 0.0 1.0 0.00 0.00 0.00 99 1016.1
20260507051854 40 276 0.0 1.0 0.00 0.00 0.00 99 1016.3
20260507051353 40 276 0.0 1.0 0.00 0.00 0.00 98 1016.1
20260507050408 39 225 1.0 2.0 0.00 0.00 0.00 98 1016.0
20260507045858 39 180 0.0 2.0 0.00 0.00 0.00 98 1016.0
20260507045357 39 180 0.0 1.0 0.00 0.00 0.00 99 1016.0
20260507044356 39 360 0.0 1.0 0.00 0.00 0.00 98 1016.1
20260507043856 39 343 0.0 1.0 0.00 0.00 0.00 98 1015.9
20260507043411 39 343 0.0 2.0 0.00 0.00 0.00 98 1015.9
20260507042401 39 343 1.0 2.0 0.00 0.00 0.00 97 1015.8
20260507041900 39 315 0.0 1.0 0.00 0.00 0.00 97 1016.0
20260507041359 39 315 1.0 2.0 0.00 0.00 0.00 97 1015.9
20260507040359 38 180 0.0 1.0 0.00 0.00 0.00 97 1016.1
20260507035858 38 180 0.0 1.0 0.00 0.00 0.00 97 1016.0
20260507035357 38 180 0.0 2.0 0.00 0.00 0.00 97 1015.9
20260507034357 38 180 0.0 1.0 0.00 0.00 0.00 96 1015.8
20260507033856 39 180 0.0 0.0 0.00 0.00 0.00 96 1015.9
20260507033355 39 180 0.0 1.0 0.00 0.00 0.00 96 1015.9
20260507032354 39 180 0.0 1.0 0.00 0.00 0.00 96 1016.0
20260507031854 39 180 0.0 2.0 0.00 0.00 0.00 96 1015.9
20260507031353 39 180 0.0 0.0 0.00 0.00 0.00 96 1015.9
20260507030353 39 180 0.0 0.0 0.00 0.00 0.00 95 1015.7
20260507025853 39 180 0.0 1.0 0.00 0.00 0.00 95 1016.0
20260507025352 40 180 0.0 1.0 0.00 0.00 0.00 94 1015.8
20260507024352 40 180 0.0 2.0 0.00 0.00 0.00 94 1015.8
20260507023906 40 180 0.0 1.0 0.00 0.00 0.00 94 1015.8
20260507023356 40 180 0.0 1.0 0.00 0.00 0.00 94 1015.9
20260507022356 40 180 0.0 0.0 0.00 0.00 0.00 94 1015.8
20260507021910 40 180 0.0 2.0 0.00 0.00 0.00 94 1015.9
20260507021400 40 360 0.0 0.0 0.00 0.00 0.00 94 1015.7
20260507020359 40 343 0.0 0.0 0.00 0.00 0.00 93 1015.9
20260507015858 42 343 0.0 1.0 0.00 0.00 0.00 92 1015.9
20260507015358 42 343 0.0 1.0 0.00 0.00 0.00 92 1016.0
20260507014358 42 315 0.0 1.0 0.00 0.00 0.00 91 1015.8
20260507013857 42 315 1.0 2.0 0.00 0.00 0.00 91 1015.7
20260507013357 42 180 0.0 0.0 0.00 0.00 0.00 91 1015.7
20260507012356 42 180 0.0 0.0 0.00 0.00 0.00 91 1015.8
20260507011856 42 180 0.0 1.0 0.00 0.00 0.00 91 1015.9
20260507011356 42 180 0.0 1.0 0.00 0.00 0.00 91 1015.9
20260507010355 42 270 0.0 1.0 0.00 0.00 0.00 91 1015.8
20260507005854 43 270 0.0 0.0 0.00 0.00 0.00 91 1015.7
20260507005409 43 270 0.0 0.0 0.00 0.00 0.00 90 1015.7
20260507004359 43 270 0.0 0.0 0.00 0.00 0.00 89 1015.7
20260507003858 43 270 1.0 2.0 0.00 0.00 0.00 89 1015.8
20260507003358 43 180 0.0 0.0 0.00 0.00 0.00 89 1016.0
20260507002358 43 180 0.0 0.0 0.00 0.00 0.00 88 1015.9
20260507001858 43 270 0.0 0.0 0.00 0.00 0.00 88 1015.9
20260507001358 43 250 0.0 0.0 0.00 0.00 0.00 88 1015.8
20260507000413 44 217 0.0 0.0 0.00 0.00 0.00 88 1015.9
20260506235902 44 216 0.0 1.0 0.00 0.00 0.00 88 1016.0
20260506235351 45 216 1.0 2.0 0.00 0.00 0.00 87 1015.9
20260506234406 46 167 2.0 2.0 0.00 0.00 0.00 86 1015.5
20260506233356 46 45 1.0 2.0 0.00 0.00 0.00 85 1015.6
20260506232355 46 45 0.0 2.0 0.00 0.00 0.00 85 1015.6
20260506231855 46 45 0.0 1.0 0.00 0.00 0.00 85 1015.5
20260506231354 46 45 0.0 2.0 0.00 0.00 0.00 84 1015.9
20260506230409 46 45 2.0 2.0 0.00 0.00 0.00 84 1015.6
20260506225859 47 180 0.0 0.0 0.00 0.00 0.00 83 1015.7
20260506225348 47 45 0.0 0.0 0.00 0.00 0.00 83 1015.8
20260506224403 47 87 0.0 1.0 0.00 0.00 0.00 82 1015.7
20260506223902 47 75 0.0 1.0 0.00 0.00 0.00 82 1015.6
20260506223402 47 86 0.0 0.0 0.00 0.00 0.00 82 1015.9
20260506222402 48 79 1.0 2.0 0.00 0.00 0.00 81 1015.7
20260506221902 48 72 2.0 4.0 0.00 0.00 0.00 80 1015.7
20260506221401 48 64 2.0 2.0 0.00 0.00 0.00 79 1015.7
20260506220401 48 51 2.0 4.0 0.00 0.00 0.00 76 1015.4
20260506215900 49 53 2.0 3.0 0.00 0.00 0.00 76 1015.6
20260506215400 49 56 2.0 4.0 0.00 0.00 0.00 75 1015.4
20260506214404 49 45 2.0 4.0 0.00 0.00 0.00 74 1015.3
20260506213849 49 45 2.0 4.0 0.00 0.00 0.00 74 1015.4
20260506213348 50 45 3.0 4.0 0.00 0.00 0.00 73 1015.6
20260506212803 50 45 2.0 2.0 0.00 0.00 0.00 72 1015.5
20260506212248 50 45 3.0 6.0 0.00 0.00 0.00 72 1015.5
20260506211802 50 41 0.0 2.0 0.00 0.00 0.00 70 1015.4
20260506210802 51 43 1.0 2.0 0.00 0.00 0.00 69 1015.3
20260506210301 51 49 2.0 2.0 0.00 0.00 0.00 68 1015.2
20260506205801 51 52 2.0 4.0 0.00 0.00 0.00 67 1015.1
20260506205300 51 57 1.0 3.0 0.00 0.00 0.00 67 1015.1
20260506204700 51 60 1.0 2.0 0.00 0.00 0.00 65 1015.1
20260506204159 52 74 2.0 4.0 0.00 0.00 0.00 64 1015.3
20260506203214 52 33 2.0 3.0 0.00 0.00 0.00 60 1015.0
20260506202649 52 33 2.0 3.0 0.00 0.00 0.00 59 1015.0
20260506202148 53 26 2.0 4.0 0.00 0.00 0.00 59 1014.9
20260506201203 53 71 1.0 3.0 0.00 0.00 0.00 57 1014.8
20260506200548 53 78 1.0 2.0 0.00 0.00 0.00 57 1015.1
20260506195602 53 72 0.0 1.0 0.00 0.00 0.00 57 1014.9
20260506195102 54 74 1.0 3.0 0.00 0.00 0.00 55 1014.9
20260506194602 54 78 4.0 6.0 0.00 0.00 0.00 55 1014.8
20260506193801 54 41 0.0 1.0 0.00 0.00 0.00 55 1014.9
20260506193201 54 41 2.0 4.0 0.00 0.00 0.00 55 1014.6
20260506192001 54 42 2.0 4.0 0.00 0.00 0.00 54 1014.7
20260506191500 54 42 2.0 3.0 0.00 0.00 0.00 54 1014.5
20260506190805 54 61 2.0 2.0 0.00 0.00 0.00 54 1014.6
20260506190250 55 58 0.0 2.0 0.00 0.00 0.00 54 1014.4
20260506185749 55 63 2.0 4.0 0.00 0.00 0.00 54 1014.4
20260506185249 55 49 2.0 4.0 0.00 0.00 0.00 54 1014.4
20260506184648 55 61 1.0 2.0 0.00 0.00 0.00 54 1014.2
20260506183818 55 57 2.0 5.0 0.00 0.00 0.00 54 1014.3
20260506183332 55 88 2.0 4.0 0.00 0.00 0.00 54 1014.4
20260506182317 56 85 2.0 3.0 0.00 0.00 0.00 55 1014.3
20260506181822 55 71 1.0 2.0 0.00 0.00 0.00 56 1014.2
20260506180706 55 36 0.0 1.0 0.00 0.00 0.00 56 1014.1
20260506175751 56 39 2.0 4.0 0.00 0.00 0.00 55 1013.9
20260506174951 56 30 2.0 4.0 0.00 0.00 0.00 54 1013.9
20260506174350 56 56 2.0 3.0 0.00 0.00 0.00 54 1013.7
20260506173905 57 79 3.0 5.0 0.00 0.00 0.00 53 1013.6
20260506172535 58 106 2.0 3.0 0.00 0.00 0.00 51 1013.6
20260506171204 58 62 3.0 5.0 0.00 0.00 0.00 51 1013.5
20260506170704 59 32 1.0 2.0 0.00 0.00 0.00 48 1013.5
20260506170233 60 64 2.0 4.0 0.00 0.00 0.00 50 1013.5
20260506165202 58 78 2.0 4.0 0.00 0.00 0.00 51 1013.6
20260506164717 58 92 3.0 4.0 0.00 0.00 0.00 51 1013.7
20260506163602 59 62 4.0 6.0 0.00 0.00 0.00 48 1013.8
20260506162316 59 46 1.0 3.0 0.00 0.00 0.00 46 1013.8
20260506161336 59 108 2.0 4.0 0.00 0.00 0.00 47 1013.7
20260506160506 59 129 2.0 4.0 0.00 0.00 0.00 47 1013.8
20260506155755 60 104 4.0 7.0 0.00 0.00 0.00 45 1013.7
20260506155255 60 10 1.0 2.0 0.00 0.00 0.00 44 1013.8
20260506154754 60 17 2.0 4.0 0.00 0.00 0.00 43 1013.8
20260506154309 61 7 2.0 2.0 0.00 0.00 0.00 41 1013.9
20260506153754 63 20 3.0 5.0 0.00 0.00 0.00 38 1013.7
20260506153308 65 56 2.0 3.0 0.00 0.00 0.00 39 1013.6
20260506152807 65 42 4.0 6.0 0.00 0.00 0.00 41 1013.6
20260506152307 62 45 1.0 2.0 0.00 0.00 0.00 43 1013.6
20260506151807 61 45 2.0 4.0 0.00 0.00 0.00 44 1013.7
20260506151307 61 52 4.0 7.0 0.00 0.00 0.00 43 1013.8
20260506150807 60 98 4.0 8.0 0.00 0.00 0.00 46 1013.7
20260506150306 59 38 2.0 4.0 0.00 0.00 0.00 45 1013.5
20260506145806 59 37 2.0 4.0 0.00 0.00 0.00 45 1013.6
20260506145306 60 25 3.0 5.0 0.00 0.00 0.00 45 1013.8
20260506144805 59 10 2.0 2.0 0.00 0.00 0.00 44 1013.7
20260506144305 60 18 2.0 4.0 0.00 0.00 0.00 42 1013.7
20260506143805 62 24 5.0 9.0 0.00 0.00 0.00 41 1013.8
20260506143304 61 41 4.0 5.0 0.00 0.00 0.00 44 1013.5
20260506142804 61 28 2.0 2.0 0.00 0.00 0.00 45 1013.9
20260506142319 61 29 3.0 5.0 0.00 0.00 0.00 44 1013.7
20260506141753 61 48 2.0 4.0 0.00 0.00 0.00 41 1013.7
20260506141308 61 44 2.0 4.0 0.00 0.00 0.00 39 1013.7
20260506140807 62 19 2.0 4.0 0.00 0.00 0.00 38 1013.9
20260506140307 64 22 3.0 6.0 0.00 0.00 0.00 35 1013.7
20260506135806 66 53 6.0 9.0 0.00 0.00 0.00 35 1013.8
20260506135306 64 358 2.0 3.0 0.00 0.00 0.00 34 1013.6
20260506134805 61 3 2.0 4.0 0.00 0.00 0.00 36 1013.7
20260506134305 62 352 6.0 11.0 0.00 0.00 0.00 33 1013.8
20260506133804 65 20 6.0 10.0 0.00 0.00 0.00 34 1013.7
20260506133304 66 44 2.0 2.0 0.00 0.00 0.00 33 1013.7
20260506132803 65 46 3.0 5.0 0.00 0.00 0.00 33 1013.7
20260506132306 64 54 2.0 7.0 0.00 0.00 0.00 31 1013.7
20260506131803 63 42 2.0 4.0 0.00 0.00 0.00 37 1013.7
20260506131307 61 36 2.0 3.0 0.00 0.00 0.00 40 1013.7
20260506130757 61 37 3.0 6.0 0.00 0.00 0.00 40 1013.7
20260506130256 61 32 4.0 9.0 0.00 0.00 0.00 40 1013.8
20260506125810 62 65 4.0 10.0 0.00 0.00 0.00 34 1013.7
20260506125300 63 32 1.0 2.0 0.00 0.00 0.00 35 1013.7
20260506124800 65 57 3.0 5.0 0.00 0.00 0.00 33 1013.7
20260506124259 65 96 2.0 3.0 0.00 0.00 0.00 34 1013.7
20260506123759 64 89 2.0 3.0 0.00 0.00 0.00 34 1013.5
20260506123314 63 74 2.0 4.0 0.00 0.00 0.00 33 1013.6
20260506122803 63 90 3.0 6.0 0.00 0.00 0.00 34 1013.7
20260506122318 64 89 7.0 9.0 0.00 0.00 0.00 34 1013.6
20260506121757 65 67 2.0 4.0 0.00 0.00 0.00 36 1013.6
20260506121312 63 60 2.0 4.0 0.00 0.00 0.00 38 1013.7
20260506120801 63 88 4.0 5.0 0.00 0.00 0.00 38 1013.7
20260506120301 63 110 4.0 9.0 0.00 0.00 0.00 39 1013.7
20260506115801 63 70 8.0 12.0 0.00 0.00 0.00 38 1013.8
20260506115300 63 8 4.0 8.0 0.00 0.00 0.00 38 1013.8
20260506114759 65 77 1.0 2.0 0.00 0.00 0.00 40 1013.9
20260506114259 64 73 2.0 4.0 0.00 0.00 0.00 38 1013.9